Weather History for Williams, AZ

Change the Weather History Date:

Friday, October 21, 2011

  Actual Average (KFLG) Record (KFLG)
Temperature  
Mean Temperature 50 °F 45 °F  
Max Temperature 68 °F 60 °F 75 °F (1952)
Min Temperature 33 °F 30 °F 5 °F (1949)
Degree Days  
Heating Degree Days 14 20  
Month to date heating degree days 349  
Since 1 July heating degree days 666  
Cooling Degree Days 0 0  
Month to date cooling degree days 0  
Year to date cooling degree days 117  
Moisture  
Dew Point 18 °F    
Average Humidity 31    
Maximum Humidity 56    
Minimum Humidity 11    
Precipitation  
Precipitation 0.00 in 0.04 in 0.94 in (2004)
Month to date precipitation 1.15  
Year to date precipitation 17.72  
Snow  
Snow 0.00 in 0.00 in 5.50 in (2004)
Month to date snowfall 0.6  
Since 1 July snowfall 0.6  
Snow Depth -    
Sea Level Pressure  
Sea Level Pressure 30.39 in    
Wind  
Wind Speed 8 mph (South)    
Max Wind Speed 14 mph    
Max Gust Speed 18 mph    
Visibility 10 miles    
Events      
T = Trace of Precipitation, MM = Missing Value Source: NWS Daily Summary

Daily Weather History Graph

Daily Weather History Graph

Search for Another Location

Airport:

Trip Planner

Search our weather history database for the weather conditions in past years. The results will help you decide how hot, cold, wet, or windy it might be!

Date:

Astronomy

Oct. 21, 2011 Rise Set
Actual Time 6:39 AM MST 5:46 PM MST
Civil Twilight 6:14 AM MST 6:12 PM MST
Nautical Twilight 5:44 AM MST 6:41 PM MST
Astronomical Twilight 5:15 AM MST 7:11 PM MST
Moon 12:47 AM MST (10/21) 2:21 PM MST (10/21)
Length of Visible Light 11h 57m
Length of Day
11h 06m
Waning Crescent, 32% of the Moon is Illuminated
Oct 21
Waning Crescent
Oct 26
New
Nov 2
First Quarter
Nov 10
Full
Nov 18
Last Quarter

Hourly Weather History & Observations

Time (MST) Temp. Windchill Dew Point Humidity Pressure Visibility Wind Dir Wind Speed Gust Speed Precip Events Conditions
12:15 AM 39.2 °F 34.2 °F 19.4 °F 45% 30.37 in 10.0 mi SE 6.9 mph - N/A   Clear
12:35 AM 39.2 °F 34.2 °F 19.4 °F 45% 30.37 in 10.0 mi SSE 6.9 mph - N/A   Clear
12:55 AM 37.4 °F 31.4 °F 19.4 °F 48% 30.37 in 10.0 mi SSE 8.1 mph - N/A   Clear
1:15 AM 37.4 °F 31.4 °F 19.4 °F 48% 30.37 in 10.0 mi SSE 8.1 mph - N/A   Clear
1:35 AM 37.4 °F 30.8 °F 19.4 °F 48% 30.37 in 10.0 mi SSE 9.2 mph - N/A   Clear
1:55 AM 37.4 °F 30.8 °F 19.4 °F 48% 30.37 in 10.0 mi SSE 9.2 mph - N/A   Clear
2:15 AM 37.4 °F 30.3 °F 19.4 °F 48% 30.37 in 10.0 mi SSE 10.4 mph - N/A   Clear
2:35 AM 37.4 °F 30.3 °F 19.4 °F 48% 30.37 in 10.0 mi SSE 10.4 mph - N/A   Clear
2:55 AM 35.6 °F 28.0 °F 19.4 °F 52% 30.37 in 10.0 mi SSE 10.4 mph - N/A   Clear
3:15 AM 35.6 °F 28.6 °F 19.4 °F 52% 30.37 in 10.0 mi SSE 9.2 mph - N/A   Clear
3:55 AM 35.6 °F 28.0 °F 19.4 °F 52% 30.37 in 10.0 mi SSE 10.4 mph - N/A   Clear
4:15 AM 33.8 °F 25.3 °F 19.4 °F 56% 30.37 in 10.0 mi SSE 11.5 mph - N/A   Clear
4:35 AM 35.6 °F 27.1 °F 19.4 °F 52% 30.37 in 10.0 mi SSE 12.7 mph - N/A   Clear
5:15 AM 33.8 °F 25.8 °F 19.4 °F 56% 30.38 in 10.0 mi SSE 10.4 mph - N/A   Clear
5:35 AM 35.6 °F 28.0 °F 19.4 °F 52% 30.39 in 10.0 mi SSE 10.4 mph - N/A   Clear
5:55 AM 33.8 °F 25.8 °F 19.4 °F 56% 30.39 in 10.0 mi SSE 10.4 mph - N/A   Clear
6:15 AM 33.8 °F 25.3 °F 19.4 °F 56% 30.40 in 10.0 mi SSE 11.5 mph - N/A   Clear
6:35 AM 35.6 °F 27.5 °F 21.2 °F 56% 30.40 in 10.0 mi SSE 11.5 mph - N/A   Clear
6:55 AM 35.6 °F 27.5 °F 21.2 °F 56% 30.40 in 10.0 mi SSE 11.5 mph - N/A   Clear
7:15 AM 37.4 °F 30.3 °F 21.2 °F 52% 30.41 in 10.0 mi SSE 10.4 mph - N/A   Clear
7:35 AM 41.0 °F 34.3 °F 23.0 °F 49% 30.42 in 10.0 mi SSE 11.5 mph - N/A   Clear
8:15 AM 48.2 °F - 24.8 °F 40% 30.42 in 10.0 mi SSE 8.1 mph - N/A   Clear
8:35 AM 51.8 °F - 26.6 °F 38% 30.43 in 10.0 mi SSE 4.6 mph - N/A   Clear
8:55 AM 57.2 °F - 26.6 °F 31% 30.43 in 10.0 mi SE 3.5 mph - N/A   Clear
9:15 AM 59.0 °F - 24.8 °F 27% 30.43 in 10.0 mi ESE 3.5 mph - N/A   Clear
9:35 AM 62.6 °F - 24.8 °F 24% 30.43 in 10.0 mi SSE 6.9 mph - N/A   Clear
9:55 AM 62.6 °F - 24.8 °F 24% 30.43 in 10.0 mi SSE 5.8 mph - N/A   Clear
10:15 AM 64.4 °F - 24.8 °F 22% 30.43 in 10.0 mi SSW 4.6 mph - N/A   Clear
10:35 AM 64.4 °F - 24.8 °F 22% 30.43 in 10.0 mi WSW 4.6 mph - N/A   Clear
10:55 AM 64.4 °F - 23.0 °F 21% 30.43 in 10.0 mi WSW 6.9 mph 17.3 mph N/A   Clear
11:15 AM 64.4 °F - 23.0 °F 21% 30.43 in 10.0 mi South 8.1 mph - N/A   Clear
11:35 AM 66.2 °F - 19.4 °F 17% 30.43 in 10.0 mi South 3.5 mph - N/A   Clear
11:55 AM 66.2 °F - 17.6 °F 15% 30.42 in 10.0 mi SW 6.9 mph - N/A   Clear
12:15 PM 66.2 °F - 15.8 °F 14% 30.42 in 10.0 mi SSW 8.1 mph - N/A   Clear
12:35 PM 68.0 °F - 15.8 °F 13% 30.41 in 10.0 mi WSW 9.2 mph - N/A   Clear
12:55 PM 66.2 °F - 14.0 °F 13% 30.40 in 10.0 mi SW 11.5 mph 16.1 mph N/A   Clear
1:15 PM 68.0 °F - 12.2 °F 12% 30.40 in 10.0 mi South 8.1 mph - N/A   Clear
1:35 PM 66.2 °F - 10.4 °F 11% 30.39 in 10.0 mi WSW 11.5 mph 17.3 mph N/A   Clear
1:55 PM 66.2 °F - 12.2 °F 12% 30.38 in 10.0 mi South 9.2 mph - N/A   Clear
2:15 PM 68.0 °F - 12.2 °F 12% 30.38 in 10.0 mi SSW 6.9 mph 17.3 mph N/A   Clear
2:35 PM 66.2 °F - 14.0 °F 13% 30.38 in 10.0 mi SSW 10.4 mph - N/A   Clear
2:55 PM 68.0 °F - 15.8 °F 13% 30.37 in 10.0 mi SSW 9.2 mph - N/A   Clear
3:15 PM 68.0 °F - 10.4 °F 11% 30.37 in 10.0 mi WSW 13.8 mph 18.4 mph N/A   Clear
3:35 PM 66.2 °F - 8.6 °F 11% 30.37 in 10.0 mi WNW 12.7 mph 16.1 mph N/A   Clear
3:55 PM 66.2 °F - 8.6 °F 11% 30.37 in 10.0 mi SW 11.5 mph - N/A   Clear
4:15 PM 66.2 °F - 8.6 °F 11% 30.37 in 10.0 mi WSW 6.9 mph - N/A   Clear
4:35 PM 66.2 °F - 10.4 °F 11% 30.37 in 10.0 mi West 5.8 mph - N/A   Clear
4:55 PM 64.4 °F - 12.2 °F 13% 30.37 in 10.0 mi NW 5.8 mph - N/A   Clear
5:15 PM 64.4 °F - 14.0 °F 14% 30.37 in 10.0 mi NW 4.6 mph - N/A   Clear
5:35 PM 62.6 °F - 14.0 °F 15% 30.37 in 10.0 mi WNW 3.5 mph - N/A   Clear
5:55 PM 59.0 °F - 14.0 °F 17% 30.38 in 10.0 mi Calm Calm - N/A   Clear
6:15 PM 59.0 °F - 14.0 °F 17% 30.38 in 10.0 mi Calm Calm - N/A   Clear
6:35 PM 50.0 °F - 15.8 °F 26% 30.39 in 10.0 mi SSE 5.8 mph - N/A   Clear
6:55 PM 50.0 °F - 17.6 °F 28% 30.39 in 10.0 mi SSE 6.9 mph - N/A   Clear
7:15 PM 48.2 °F - 19.4 °F 32% 30.40 in 10.0 mi SSE 6.9 mph - N/A   Clear
7:35 PM 46.4 °F 42.9 °F 19.4 °F 34% 30.40 in 10.0 mi SSE 6.9 mph - N/A   Clear
8:15 PM 44.6 °F 42.2 °F 19.4 °F 37% 30.41 in 10.0 mi SSE 4.6 mph - N/A   Clear
8:35 PM 42.8 °F 38.0 °F 19.4 °F 39% 30.42 in 10.0 mi SSE 8.1 mph - N/A   Clear
8:55 PM 41.0 °F 35.8 °F 19.4 °F 42% 30.42 in 10.0 mi SSE 8.1 mph - N/A   Clear
9:15 PM 41.0 °F 35.8 °F 19.4 °F 42% 30.42 in 10.0 mi SSE 8.1 mph - N/A   Clear
9:35 PM 41.0 °F 35.8 °F 21.2 °F 45% 30.42 in 10.0 mi SSE 8.1 mph - N/A   Clear
9:55 PM 39.2 °F 34.2 °F 21.2 °F 49% 30.42 in 10.0 mi SSE 6.9 mph - N/A   Clear
10:15 PM 39.2 °F 34.2 °F 21.2 °F 49% 30.42 in 10.0 mi SSE 6.9 mph - N/A   Clear
10:35 PM 39.2 °F 33.6 °F 21.2 °F 49% 30.42 in 10.0 mi SSE 8.1 mph - N/A   Clear
10:55 PM 37.4 °F 31.4 °F 21.2 °F 52% 30.42 in 10.0 mi SSE 8.1 mph - N/A   Clear
11:15 PM 37.4 °F 31.4 °F 21.2 °F 52% 30.41 in 10.0 mi SSE 8.1 mph - N/A   Clear
11:35 PM 37.4 °F 30.8 °F 21.2 °F 52% 30.41 in 10.0 mi SSE 9.2 mph - N/A   Clear